Volver al catálogo

STARLINK-35149

ActivoComunicacionesVLEO
NORAD 65512·PAYLOAD·🇺🇸 United States

Lanzado Sep 5, 2025 desde Cape Canaveral Space Force Station

Loading…

Próximos Pases (próximas 24 horas)

TLE

ActualizadoSource: CelesTrak SupGP

Época: Sep 15, 2026, 02:32 UTC

1 65512C 25198W   26258.10604167  .00024697  00000+0  72973-3 0  2588
2 65512  53.1566 107.0427 0001234  83.3894 104.3600 15.34375620    14

Sigue STARLINK-35149 en tiempo real con AllMySat

Download on the App Store